Niagara Falls, NY

3:53 PM EST on December 11, 2019 (GMT -0500)
Niagara Falls International

Weather History for KIAG - September, 2019

Change the Weather History Date:

Thursday, September 5, 2019

  Actual Average Record
Temperature  
Mean Temperature 60 °F -  
Max Temperature 71 °F 74 °F 89 °F (2018)
Min Temperature 51 °F 55 °F 44 °F (2000)
Degree Days  
Heating Degree Days 4    
Growing Degree Days 10 (Base 50)    
Moisture  
Dew Point 52 °F    
Average Humidity 74    
Maximum Humidity 92    
Minimum Humidity 55    
Precipitation  
Precipitation 0.00 in - - ()
Sea Level Pressure  
Sea Level Pressure 30.11 in    
Wind  
Wind Speed 3 mph (North)    
Max Wind Speed 8 mph    
Max Gust Speed -    
Visibility 10 miles    
Events      
Averages and records for this station are not official NWS values.
T = Trace of Precipitation, MM = Missing Value Source: NWS Daily Summary

Daily Weather History Graph

Daily Weather History Graph

Search for Another Location

Airport or City:

Astronomy

Sep. 05, 2019 Rise Set
Actual Time 6:44 AM EDT 7:44 PM EDT
Civil Twilight 6:15 AM EDT 8:13 PM EDT
Nautical Twilight 5:40 AM EDT 8:47 PM EDT
Astronomical Twilight 5:04 AM EDT 9:23 PM EDT
Moon 2:00 PM EDT (9/5) 11:47 PM EDT (9/5)
Length of Visible Light 13h 57m
Length of Day
12h 59m
Waxing Crescent, 45% of the Moon is Illuminated
Sep 5
Waxing Crescent
Sep 5
First Quarter
Sep 14
Full
Sep 21
Last Quarter
Sep 28
New

Hourly Weather History & Observations

Time (EDT) Temp. Dew Point Humidity Pressure Visibility Wind Dir Wind Speed Gust Speed Precip Events Conditions
12:53 AM 61.0 °F 53.1 °F 75% 30.11 in 10.0 mi North 5.8 mph - N/A   Overcast
1:53 AM 57.9 °F 50.0 °F 75% 30.11 in 10.0 mi NNE 3.5 mph - N/A   Partly Cloudy
2:53 AM 55.9 °F 48.9 °F 77% 30.10 in 10.0 mi NNE 3.5 mph - N/A   Clear
3:53 AM 52.0 °F 48.0 °F 86% 30.11 in 10.0 mi Calm Calm - N/A   Clear
4:53 AM 53.1 °F 48.9 °F 86% 30.12 in 10.0 mi Calm Calm - N/A   Clear
5:53 AM 51.1 °F 48.9 °F 92% 30.13 in 10.0 mi Calm Calm - N/A   Clear
6:53 AM 51.1 °F 48.0 °F 89% 30.14 in 10.0 mi Calm Calm - N/A   Clear
7:53 AM 55.0 °F 52.0 °F 89% 30.15 in 10.0 mi Calm Calm - N/A   Clear
8:53 AM 60.1 °F 54.0 °F 80% 30.16 in 10.0 mi Calm Calm - N/A   Clear
9:53 AM 63.0 °F 54.0 °F 72% 30.17 in 10.0 mi WNW 3.5 mph - N/A   Partly Cloudy
10:53 AM 64.9 °F 54.0 °F 68% 30.17 in 10.0 mi Variable 3.5 mph - N/A   Partly Cloudy
11:53 AM 66.9 °F 52.0 °F 59% 30.14 in 10.0 mi NW 5.8 mph - N/A   Mostly Cloudy
12:53 PM 68.0 °F 53.1 °F 59% 30.14 in 10.0 mi NNW 8.1 mph - N/A   Clear
1:53 PM 68.0 °F 53.1 °F 59% 30.12 in 10.0 mi Calm Calm - N/A   Scattered Clouds
2:53 PM 68.0 °F 53.1 °F 59% 30.11 in 10.0 mi NE 5.8 mph - N/A   Mostly Cloudy
3:53 PM 70.0 °F 53.1 °F 55% 30.10 in 10.0 mi NNW 6.9 mph - N/A   Scattered Clouds
4:53 PM 69.1 °F 55.0 °F 61% 30.10 in 10.0 mi North 8.1 mph - N/A   Mostly Cloudy
5:53 PM 68.0 °F 54.0 °F 61% 30.09 in 10.0 mi North 5.8 mph - N/A   Clear
6:53 PM 66.9 °F 54.0 °F 63% 30.08 in 10.0 mi NE 4.6 mph - N/A   Clear
7:53 PM 61.0 °F 54.0 °F 78% 30.08 in 10.0 mi East 3.5 mph - N/A   Clear
8:53 PM 60.1 °F 53.1 °F 78% 30.08 in 10.0 mi Calm Calm - N/A   Clear
9:53 PM 57.0 °F 53.1 °F 87% 30.08 in 10.0 mi Calm Calm - N/A   Clear
10:53 PM 57.0 °F 53.1 °F 87% 30.06 in 10.0 mi East 5.8 mph - N/A   Clear
11:53 PM 57.0 °F 53.1 °F 87% 30.05 in 10.0 mi Calm Calm - N/A   Clear